METEOR 2-5 DEB, 45509

Orbit data source: Space-Track

METEOR 2-5 DEB, 45509 is space debris in LEO originally from a launch on Wed, 31 Oct 1979 UTC launched from the Plesetsk Missile And Space Complex (PKMTR). Debris objects in space refer to the collection of defunct objects orbiting the Earth. Examples of debris include non-operational satellites, rocket bodies, and fragments generated from explosions, collisions, or faulty payload assembly.

Loading next visibility...
Identifier
45509, 1979-095CR
Orbit
LEO
Country
Flag of CISCIS
Related business
Manufacturer
Unknown
Mission
Spacecraft
Bus & Motor
Unknown
Mass
Unknown
Launch date (UTC)
1979-10-31 (47 years ago)
Launch vehicle
Unknown
Launch site
Plesetsk Missile And Space Complex (PKMTR)
Object type
Payload
Rocket body
Debris
Shape & HBR
Unknown shape, 0.1 m
Radar Cross Section
Small (<0.1 m²)

Expand to show TLE details & history
Last TLE update: 5 days ago

TLE from 5 days ago
0 METEOR 2-5 DEB
1 45509U 79095CR  26119.40790801  .00003879  00000-0  11383-2 0  9996
2 45509  81.1872 167.9980 0001021  23.3792 353.7674 14.43707077638284
Epoch: 2026-04-29T09:47Z
TLE epoch observation values (Epoch: 2026-04-29T09:47:23.252Z)
Latitude
16.9233°
Longitude
166.47115°
Altitude
747.872 km
Speed
7.483 km/s
True Right ascension
11h 22m 44s
True Declination
16° 49' 40"
Sunlit
Object was in full shadow at epoch
Visualization orbit readout
Latitude
Unknown
Longitude
Unknown
Altitude
Unknown
Speed
Unknown
Apparent Right ascension
Unknown
Apparent Declination
Unknown
Sunlit
N/A
Visualization observer readout
Local Sidereal Time
15:00:54
Azimuth
Unknown
Elevation
Unknown
Doppler factor
Unknown
Orbital elements
Apogee altitude
744.136 km
Perigee altitude
742.681 km
Semi-major axis
7,121.545 km
Eccentricity
0.0001
Inclination
81.1872°
RAAN
167.998°
Arg. of periapsis
23.3792°
True anomaly
353.76613°
Mean anomaly
353.7674°
Eccentric anomaly
353.76676°
Mean motion
3.61145 °/min
Orbital period
99.68 mins
BSTAR
0.0011383
Loading maneuver chart data...
Computing Atmospheric mass density...

Documentation

Showing up to 5 results
|